Time,TemperatureF,DewpointF,PressureIn,WindDirection,WindDirectionDegrees,WindSpeedMPH,WindSpeedGustMPH,Humidity,HourlyPrecipIn,Conditions,Clouds,dailyrainin,SoftwareType,DateUTC
2013-12-28 00:01:00,38.5,28.5,30.00,NW,315,3.4,3.4,67,0.00,,---,0.00,VWS V14.00,2013-12-28 05:01:00,
2013-12-28 00:03:00,38.7,28.7,30.00,South,180,2.9,3.6,67,0.00,,---,0.00,VWS V14.00,2013-12-28 05:03:00,
2013-12-28 00:04:00,38.5,28.5,30.00,WSW,248,2.0,2.0,67,0.00,,---,0.00,VWS V14.00,2013-12-28 05:04:00,
2013-12-28 00:09:00,38.5,28.5,30.00,SSW,202,3.4,3.4,67,0.00,,---,0.00,VWS V14.00,2013-12-28 05:09:00,
2013-12-28 00:14:00,38.7,28.3,30.00,SSW,202,3.1,4.3,66,0.00,,---,0.00,VWS V14.00,2013-12-28 05:14:00,
2013-12-28 00:19:00,38.5,28.5,30.00,SW,225,2.7,2.7,67,0.00,,---,0.00,VWS V14.00,2013-12-28 05:19:00,
2013-12-28 00:24:00,38.3,28.3,30.00,WSW,248,2.7,3.6,67,0.00,,---,0.00,VWS V14.00,2013-12-28 05:24:00,
2013-12-28 00:29:00,38.5,28.5,30.00,WSW,248,2.9,4.0,67,0.00,,---,0.00,VWS V14.00,2013-12-28 05:29:00,
2013-12-28 00:34:00,38.5,28.5,30.00,WSW,248,2.5,2.5,67,0.00,,---,0.00,VWS V14.00,2013-12-28 05:34:00,
2013-12-28 00:39:00,38.3,28.3,30.00,South,180,6.0,6.0,67,0.00,,---,0.00,VWS V14.00,2013-12-28 05:39:00,
2013-12-28 00:44:00,38.3,28.3,30.00,SSW,202,3.6,3.6,67,0.00,,---,0.00,VWS V14.00,2013-12-28 05:44:00,
2013-12-28 00:49:00,38.1,28.1,30.00,SSE,158,3.4,5.4,67,0.00,,---,0.00,VWS V14.00,2013-12-28 05:49:00,
2013-12-28 00:54:00,38.1,28.1,30.00,SSW,202,3.4,3.8,67,0.00,,---,0.00,VWS V14.00,2013-12-28 05:54:00,
2013-12-28 00:59:00,38.1,28.1,30.00,South,180,1.6,3.8,67,0.00,,---,0.00,VWS V14.00,2013-12-28 05:59:00,
2013-12-28 01:04:00,37.9,28.3,30.00,South,180,2.0,2.0,68,0.00,,---,0.00,VWS V14.00,2013-12-28 06:04:00,
2013-12-28 01:09:00,37.9,28.3,30.00,South,180,2.2,2.2,68,0.00,,---,0.00,VWS V14.00,2013-12-28 06:09:00,
2013-12-28 01:14:00,37.9,28.3,30.00,WSW,248,3.1,3.1,68,0.00,,---,0.00,VWS V14.00,2013-12-28 06:14:00,
2013-12-28 01:19:00,37.8,28.2,30.00,SW,225,2.9,2.9,68,0.00,,---,0.00,VWS V14.00,2013-12-28 06:19:00,
2013-12-28 01:24:00,37.8,28.2,30.00,SSW,202,1.3,2.9,68,0.00,,---,0.00,VWS V14.00,2013-12-28 06:24:00,
2013-12-28 01:29:00,37.6,28.4,30.03,WSW,248,2.9,2.9,69,0.00,,---,0.00,VWS V14.00,2013-12-28 06:29:00,
2013-12-28 01:34:00,37.6,28.4,30.03,SSW,202,3.4,3.4,69,0.00,,---,0.00,VWS V14.00,2013-12-28 06:34:00,
2013-12-28 01:39:00,37.4,28.2,30.03,WSW,248,1.6,2.0,69,0.00,,---,0.00,VWS V14.00,2013-12-28 06:39:00,
2013-12-28 01:44:00,37.4,28.2,30.00,SSW,202,3.8,3.8,69,0.00,,---,0.00,VWS V14.00,2013-12-28 06:44:00,
2013-12-28 01:49:00,37.4,28.2,30.00,SSW,202,1.3,2.2,69,0.00,,---,0.00,VWS V14.00,2013-12-28 06:49:00,
2013-12-28 01:55:00,37.4,28.5,30.00,SSW,202,3.6,3.6,70,0.00,,---,0.00,VWS V14.00,2013-12-28 06:55:00,
2013-12-28 02:00:00,37.2,28.4,30.00,SSW,202,2.7,2.9,70,0.00,,---,0.00,VWS V14.00,2013-12-28 07:00:00,
2013-12-28 02:05:00,37.2,28.4,30.00,SSW,202,2.0,2.2,70,0.00,,---,0.00,VWS V14.00,2013-12-28 07:05:00,
2013-12-28 02:10:00,37.2,28.4,30.00,SSW,202,2.9,2.9,70,0.00,,---,0.00,VWS V14.00,2013-12-28 07:10:00,
2013-12-28 02:15:00,37.0,28.2,30.00,SSW,202,2.2,2.2,70,0.00,,---,0.00,VWS V14.00,2013-12-28 07:15:00,
2013-12-28 02:20:00,37.0,28.2,30.00,SSW,202,2.0,2.2,70,0.00,,---,0.00,VWS V14.00,2013-12-28 07:20:00,
2013-12-28 02:25:00,37.0,28.2,30.00,South,180,1.3,2.2,70,0.00,,---,0.00,VWS V14.00,2013-12-28 07:25:00,
2013-12-28 02:30:00,37.0,28.2,30.00,SSW,202,1.6,2.2,70,0.00,,---,0.00,VWS V14.00,2013-12-28 07:30:00,
2013-12-28 02:35:00,36.9,28.0,30.00,SSW,202,2.0,2.0,70,0.00,,---,0.00,VWS V14.00,2013-12-28 07:35:00,
2013-12-28 02:40:00,36.9,28.0,30.03,WSW,248,1.6,2.7,70,0.00,,---,0.00,VWS V14.00,2013-12-28 07:40:00,
2013-12-28 02:45:00,36.9,28.0,30.03,SSW,202,2.7,2.9,70,0.00,,---,0.00,VWS V14.00,2013-12-28 07:45:00,
2013-12-28 02:50:00,36.9,28.0,30.03,SW,225,3.8,3.8,70,0.00,,---,0.00,VWS V14.00,2013-12-28 07:50:00,
2013-12-28 02:55:00,36.9,28.0,30.00,South,180,2.7,2.7,70,0.00,,---,0.00,VWS V14.00,2013-12-28 07:55:00,
2013-12-28 03:00:00,36.9,28.0,30.00,South,180,1.6,3.1,70,0.00,,---,0.00,VWS V14.00,2013-12-28 08:00:00,
2013-12-28 03:05:00,36.9,28.0,30.00,SSW,202,2.7,2.7,70,0.00,,---,0.00,VWS V14.00,2013-12-28 08:05:00,
2013-12-28 03:10:00,36.7,27.8,30.00,WSW,248,2.5,2.5,70,0.00,,---,0.00,VWS V14.00,2013-12-28 08:10:00,
2013-12-28 03:16:00,36.7,27.8,30.00,SSW,202,2.2,2.2,70,0.00,,---,0.00,VWS V14.00,2013-12-28 08:16:00,
2013-12-28 03:21:00,36.7,27.8,30.00,West,270,0.9,0.9,70,0.00,,---,0.00,VWS V14.00,2013-12-28 08:21:00,
2013-12-28 03:26:00,36.7,27.8,30.03,South,180,1.1,1.1,70,0.00,,---,0.00,VWS V14.00,2013-12-28 08:26:00,
2013-12-28 03:31:00,36.7,27.8,30.03,SW,225,0.0,1.6,70,0.00,,---,0.00,VWS V14.00,2013-12-28 08:31:00,
2013-12-28 03:36:00,36.3,27.5,30.03,SSW,202,0.0,0.0,70,0.00,,---,0.00,VWS V14.00,2013-12-28 08:36:00,
2013-12-28 03:41:00,36.3,27.8,30.03,WSW,248,0.0,1.6,71,0.00,,---,0.00,VWS V14.00,2013-12-28 08:41:00,
2013-12-28 03:46:00,36.3,27.8,30.03,SSW,202,0.0,1.3,71,0.00,,---,0.00,VWS V14.00,2013-12-28 08:46:00,
2013-12-28 03:51:00,36.3,27.8,30.03,SSW,202,2.0,2.0,71,0.00,,---,0.00,VWS V14.00,2013-12-28 08:51:00,
2013-12-28 03:56:00,36.3,27.8,30.03,South,180,1.3,3.1,71,0.00,,---,0.00,VWS V14.00,2013-12-28 08:56:00,
2013-12-28 04:01:00,36.5,28.0,30.03,SSW,202,2.9,2.9,71,0.00,,---,0.00,VWS V14.00,2013-12-28 09:01:00,
2013-12-28 04:06:00,36.7,28.5,30.03,WSW,248,0.0,2.5,72,0.00,,---,0.00,VWS V14.00,2013-12-28 09:06:00,
2013-12-28 04:11:00,36.9,28.7,30.03,South,180,1.1,2.5,72,0.00,,---,0.00,VWS V14.00,2013-12-28 09:11:00,
2013-12-28 04:16:00,36.9,28.4,30.03,SW,225,2.9,2.9,71,0.00,,---,0.00,VWS V14.00,2013-12-28 09:16:00,
2013-12-28 04:21:00,37.0,28.5,30.03,WSW,248,2.0,2.2,71,0.00,,---,0.00,VWS V14.00,2013-12-28 09:21:00,
2013-12-28 04:26:00,37.0,28.5,30.03,WSW,248,0.0,2.0,71,0.00,,---,0.00,VWS V14.00,2013-12-28 09:26:00,
2013-12-28 04:31:00,37.0,28.5,30.03,WSW,248,1.3,1.3,71,0.00,,---,0.00,VWS V14.00,2013-12-28 09:31:00,
2013-12-28 04:36:00,37.0,28.5,30.03,West,270,2.5,4.3,71,0.00,,---,0.00,VWS V14.00,2013-12-28 09:36:00,
2013-12-28 04:41:00,36.9,28.4,30.03,WSW,248,0.0,1.1,71,0.00,,---,0.00,VWS V14.00,2013-12-28 09:41:00,
2013-12-28 04:46:00,36.9,28.4,30.03,SSW,202,4.0,4.0,71,0.00,,---,0.00,VWS V14.00,2013-12-28 09:46:00,
2013-12-28 04:51:00,36.7,28.2,30.03,West,270,0.9,2.9,71,0.00,,---,0.00,VWS V14.00,2013-12-28 09:51:00,
2013-12-28 04:56:00,36.7,28.2,30.03,SSW,202,1.6,1.6,71,0.00,,---,0.00,VWS V14.00,2013-12-28 09:56:00,
2013-12-28 05:01:00,36.7,28.5,30.03,West,270,1.1,1.3,72,0.00,,---,0.00,VWS V14.00,2013-12-28 10:01:00,
2013-12-28 05:06:00,36.7,28.5,30.03,WSW,248,2.5,2.9,72,0.00,,---,0.00,VWS V14.00,2013-12-28 10:06:00,
2013-12-28 05:12:00,36.5,28.4,30.03,SSW,202,0.0,0.0,72,0.00,,---,0.00,VWS V14.00,2013-12-28 10:12:00,
2013-12-28 05:17:00,36.1,28.0,30.03,SW,225,0.9,0.9,72,0.00,,---,0.00,VWS V14.00,2013-12-28 10:17:00,
2013-12-28 05:22:00,36.1,28.0,30.03,SSW,202,0.0,0.0,72,0.00,,---,0.00,VWS V14.00,2013-12-28 10:22:00,
2013-12-28 05:27:00,36.0,27.8,30.03,SSW,202,1.3,1.3,72,0.00,,---,0.00,VWS V14.00,2013-12-28 10:27:00,
2013-12-28 05:32:00,35.8,28.0,30.03,SW,225,1.3,1.3,73,0.00,,---,0.00,VWS V14.00,2013-12-28 10:32:00,
2013-12-28 05:37:00,35.8,28.0,30.03,SSW,202,1.1,1.6,73,0.00,,---,0.00,VWS V14.00,2013-12-28 10:37:00,
2013-12-28 05:42:00,35.8,28.0,30.06,SW,225,0.9,1.1,73,0.00,,---,0.00,VWS V14.00,2013-12-28 10:42:00,
2013-12-28 05:47:00,35.6,28.1,30.06,SSW,202,1.1,1.1,74,0.00,,---,0.00,VWS V14.00,2013-12-28 10:47:00,
2013-12-28 05:52:00,35.6,28.1,30.06,WSW,248,1.3,1.6,74,0.00,,---,0.00,VWS V14.00,2013-12-28 10:52:00,
2013-12-28 05:57:00,35.6,28.1,30.03,WSW,248,2.7,2.7,74,0.00,,---,0.00,VWS V14.00,2013-12-28 10:57:00,
2013-12-28 06:02:00,35.6,28.1,30.03,SW,225,1.1,2.0,74,0.00,,---,0.00,VWS V14.00,2013-12-28 11:02:00,
2013-12-28 06:07:00,35.6,28.5,30.03,WSW,248,0.0,2.0,75,0.00,,---,0.00,VWS V14.00,2013-12-28 11:07:00,
2013-12-28 06:12:00,35.4,28.3,30.06,SSW,202,0.0,0.0,75,0.00,,---,0.00,VWS V14.00,2013-12-28 11:12:00,
2013-12-28 06:17:00,35.1,28.0,30.06,SSW,202,1.1,1.1,75,0.00,,---,0.00,VWS V14.00,2013-12-28 11:17:00,
2013-12-28 06:22:00,35.1,28.0,30.06,SSW,202,0.9,1.1,75,0.00,,---,0.00,VWS V14.00,2013-12-28 11:22:00,
2013-12-28 06:27:00,34.9,27.8,30.06,SSW,202,0.0,1.1,75,0.00,,---,0.00,VWS V14.00,2013-12-28 11:27:00,
2013-12-28 06:32:00,34.7,27.6,30.06,WSW,248,0.0,0.0,75,0.00,,---,0.00,VWS V14.00,2013-12-28 11:32:00,
2013-12-28 06:37:00,34.5,27.8,30.06,WSW,248,0.0,0.0,76,0.00,,---,0.00,VWS V14.00,2013-12-28 11:37:00,
2013-12-28 06:42:00,34.5,27.8,30.06,SW,225,1.1,1.6,76,0.00,,---,0.00,VWS V14.00,2013-12-28 11:42:00,
2013-12-28 06:47:00,34.5,28.1,30.06,SSW,202,1.3,1.3,77,0.00,,---,0.00,VWS V14.00,2013-12-28 11:47:00,
2013-12-28 06:52:00,34.5,28.1,30.06,SSW,202,1.6,2.9,77,0.00,,---,0.00,VWS V14.00,2013-12-28 11:52:00,
2013-12-28 06:57:00,34.5,28.1,30.06,SW,225,0.9,0.9,77,0.00,,---,0.00,VWS V14.00,2013-12-28 11:57:00,
2013-12-28 07:02:00,34.5,28.1,30.06,SE,135,1.1,1.1,77,0.00,,---,0.00,VWS V14.00,2013-12-28 12:02:00,
2013-12-28 07:07:00,34.5,28.1,30.06,SW,225,3.1,3.1,77,0.00,,---,0.00,VWS V14.00,2013-12-28 12:07:00,
2013-12-28 07:13:00,34.5,28.4,30.06,SSW,202,1.1,1.3,78,0.00,,---,0.00,VWS V14.00,2013-12-28 12:13:00,
2013-12-28 07:18:00,34.5,28.1,30.06,West,270,0.9,0.9,77,0.00,,---,0.00,VWS V14.00,2013-12-28 12:18:00,
2013-12-28 07:23:00,34.3,28.2,30.06,SW,225,0.9,1.3,78,0.00,,---,0.00,VWS V14.00,2013-12-28 12:23:00,
2013-12-28 07:28:00,34.5,28.4,30.06,SSW,202,1.6,1.6,78,0.00,,---,0.00,VWS V14.00,2013-12-28 12:28:00,
2013-12-28 07:33:00,34.5,28.4,30.06,SSW,202,2.0,2.0,78,0.00,,---,0.00,VWS V14.00,2013-12-28 12:33:00,
2013-12-28 07:38:00,34.5,28.4,30.06,SSW,202,1.3,2.0,78,0.00,,---,0.00,VWS V14.00,2013-12-28 12:38:00,
2013-12-28 07:43:00,34.3,28.2,30.06,South,180,1.1,1.1,78,0.00,,---,0.00,VWS V14.00,2013-12-28 12:43:00,
2013-12-28 07:48:00,34.3,28.2,30.06,SSW,202,1.3,1.3,78,0.00,,---,0.00,VWS V14.00,2013-12-28 12:48:00,
2013-12-28 07:53:00,34.0,27.9,30.06,SSW,202,0.0,0.0,78,0.00,,---,0.00,VWS V14.00,2013-12-28 12:53:00,
2013-12-28 07:58:00,34.0,27.9,30.06,SSW,202,0.9,2.2,78,0.00,,---,0.00,VWS V14.00,2013-12-28 12:58:00,
2013-12-28 08:03:00,33.8,27.7,30.06,South,180,1.1,1.1,78,0.00,,---,0.00,VWS V14.00,2013-12-28 13:03:00,
2013-12-28 08:08:00,33.6,27.5,30.06,WSW,248,2.0,2.5,78,0.00,,---,0.00,VWS V14.00,2013-12-28 13:08:00,
2013-12-28 08:13:00,33.4,27.3,30.06,SSW,202,1.1,1.3,78,0.00,,---,0.00,VWS V14.00,2013-12-28 13:13:00,
2013-12-28 08:18:00,33.3,27.5,30.06,SSW,202,0.0,0.9,79,0.00,,---,0.00,VWS V14.00,2013-12-28 13:18:00,
2013-12-28 08:23:00,33.3,27.5,30.06,SW,225,0.9,1.1,79,0.00,,---,0.00,VWS V14.00,2013-12-28 13:23:00,
2013-12-28 08:28:00,33.1,27.3,30.06,WSW,248,0.9,0.9,79,0.00,,---,0.00,VWS V14.00,2013-12-28 13:28:00,
2013-12-28 08:33:00,33.1,27.3,30.06,SSW,202,1.3,1.3,79,0.00,,---,0.00,VWS V14.00,2013-12-28 13:33:00,
2013-12-28 08:38:00,33.1,27.3,30.06,SW,225,0.9,0.9,79,0.00,,---,0.00,VWS V14.00,2013-12-28 13:38:00,
2013-12-28 08:43:00,33.3,27.8,30.03,SSW,202,1.3,1.3,80,0.00,,---,0.00,VWS V14.00,2013-12-28 13:43:00,
2013-12-28 08:49:00,33.4,27.9,30.03,SSW,202,1.3,3.1,80,0.00,,---,0.00,VWS V14.00,2013-12-28 13:49:00,
2013-12-28 08:54:00,33.6,28.1,30.03,SSE,158,0.0,0.0,80,0.00,,---,0.00,VWS V14.00,2013-12-28 13:54:00,
2013-12-28 08:59:00,33.8,28.3,30.03,WSW,248,1.1,1.3,80,0.00,,---,0.00,VWS V14.00,2013-12-28 13:59:00,
2013-12-28 09:04:00,34.0,28.5,30.03,South,180,0.9,1.1,80,0.00,,---,0.00,VWS V14.00,2013-12-28 14:04:00,
2013-12-28 09:09:00,34.3,28.8,30.03,SW,225,1.6,1.6,80,0.00,,---,0.00,VWS V14.00,2013-12-28 14:09:00,
2013-12-28 09:14:00,34.9,29.4,30.03,SSW,202,2.0,2.0,80,0.00,,---,0.00,VWS V14.00,2013-12-28 14:14:00,
2013-12-28 09:19:00,35.4,29.9,30.03,SSW,202,1.1,1.3,80,0.00,,---,0.00,VWS V14.00,2013-12-28 14:19:00,
2013-12-28 09:24:00,35.8,29.9,30.03,SSW,202,2.0,2.5,79,0.00,,---,0.00,VWS V14.00,2013-12-28 14:24:00,
2013-12-28 09:29:00,36.1,30.0,30.03,WSW,248,3.1,3.1,78,0.00,,---,0.00,VWS V14.00,2013-12-28 14:29:00,
2013-12-28 09:34:00,36.5,30.0,30.03,SW,225,2.5,2.5,77,0.00,,---,0.00,VWS V14.00,2013-12-28 14:34:00,
2013-12-28 09:39:00,37.0,30.2,30.03,SSW,202,2.5,2.5,76,0.00,,---,0.00,VWS V14.00,2013-12-28 14:39:00,
2013-12-28 09:44:00,37.2,30.0,30.00,South,180,3.4,3.4,75,0.00,,---,0.00,VWS V14.00,2013-12-28 14:44:00,
2013-12-28 09:49:00,37.6,30.4,30.00,SSW,202,2.5,2.7,75,0.00,,---,0.00,VWS V14.00,2013-12-28 14:49:00,
2013-12-28 09:54:00,38.1,30.6,30.00,SW,225,0.9,1.3,74,0.00,,---,0.00,VWS V14.00,2013-12-28 14:54:00,
2013-12-28 09:59:00,38.7,30.8,30.00,SSW,202,1.6,1.6,73,0.00,,---,0.00,VWS V14.00,2013-12-28 14:59:00,
2013-12-28 10:04:00,38.8,30.9,30.00,WSW,248,2.2,2.7,73,0.00,,---,0.00,VWS V14.00,2013-12-28 15:04:00,
2013-12-28 10:09:00,39.2,30.6,30.00,SSW,202,1.6,2.0,71,0.00,,---,0.00,VWS V14.00,2013-12-28 15:09:00,
2013-12-28 10:14:00,39.7,31.1,29.97,WSW,248,1.6,1.6,71,0.00,,---,0.00,VWS V14.00,2013-12-28 15:14:00,
2013-12-28 10:20:00,39.9,30.9,29.97,SSW,202,1.3,2.2,70,0.00,,---,0.00,VWS V14.00,2013-12-28 15:20:00,
2013-12-28 10:25:00,40.3,30.6,29.97,SSW,202,1.1,2.5,68,0.00,,---,0.00,VWS V14.00,2013-12-28 15:25:00,
2013-12-28 10:30:00,40.6,30.9,29.97,SSW,202,2.0,2.0,68,0.00,,---,0.00,VWS V14.00,2013-12-28 15:30:00,
2013-12-28 10:35:00,41.0,30.9,29.97,SSW,202,3.4,3.6,67,0.00,,---,0.00,VWS V14.00,2013-12-28 15:35:00,
2013-12-28 10:40:00,41.2,30.3,30.00,SW,225,2.0,3.6,65,0.00,,---,0.00,VWS V14.00,2013-12-28 15:40:00,
2013-12-28 10:45:00,41.4,30.9,30.00,West,270,2.9,2.9,66,0.00,,---,0.00,VWS V14.00,2013-12-28 15:45:00,
2013-12-28 10:50:00,41.5,30.7,30.00,South,180,4.9,4.9,65,0.00,,---,0.00,VWS V14.00,2013-12-28 15:50:00,
2013-12-28 10:55:00,41.5,29.9,30.00,SSW,202,2.5,3.1,63,0.00,,---,0.00,VWS V14.00,2013-12-28 15:55:00,
2013-12-28 11:00:00,41.9,30.6,30.00,SW,225,2.5,2.7,64,0.00,,---,0.00,VWS V14.00,2013-12-28 16:00:00,
2013-12-28 11:05:00,42.4,31.1,30.00,South,180,2.7,2.7,64,0.00,,---,0.00,VWS V14.00,2013-12-28 16:05:00,
2013-12-28 11:10:00,42.4,30.4,30.00,SW,225,1.1,2.9,62,0.00,,---,0.00,VWS V14.00,2013-12-28 16:10:00,
2013-12-28 11:15:00,42.6,30.9,30.00,SSW,202,2.0,2.7,63,0.00,,---,0.00,VWS V14.00,2013-12-28 16:15:00,
2013-12-28 11:20:00,42.6,30.5,30.00,SSW,202,2.5,2.5,62,0.00,,---,0.00,VWS V14.00,2013-12-28 16:20:00,
2013-12-28 11:25:00,42.4,30.0,30.00,WSW,248,2.5,2.5,61,0.00,,---,0.00,VWS V14.00,2013-12-28 16:25:00,
2013-12-28 11:30:00,42.8,30.3,30.00,West,270,2.0,2.9,61,0.00,,---,0.00,VWS V14.00,2013-12-28 16:30:00,
2013-12-28 11:35:00,42.6,30.1,30.00,West,270,4.0,4.0,61,0.00,,---,0.00,VWS V14.00,2013-12-28 16:35:00,
2013-12-28 11:40:00,42.8,30.3,30.00,South,180,1.3,2.0,61,0.00,,---,0.00,VWS V14.00,2013-12-28 16:40:00,
2013-12-28 11:45:00,43.2,30.6,30.00,SE,135,1.6,1.6,61,0.00,,---,0.00,VWS V14.00,2013-12-28 16:45:00,
2013-12-28 11:50:00,43.3,30.8,30.00,SE,135,3.1,3.6,61,0.00,,---,0.00,VWS V14.00,2013-12-28 16:50:00,
2013-12-28 11:55:00,43.5,30.6,30.00,SE,135,2.2,2.2,60,0.00,,---,0.00,VWS V14.00,2013-12-28 16:55:00,
2013-12-28 12:00:00,43.3,29.1,30.00,WSW,248,4.3,4.3,57,0.00,,---,0.00,VWS V14.00,2013-12-28 17:00:00,
2013-12-28 12:05:00,43.7,29.9,30.00,WNW,292,1.3,1.3,58,0.00,,---,0.00,VWS V14.00,2013-12-28 17:05:00,
2013-12-28 12:10:00,44.2,30.8,29.97,SSW,202,2.0,2.0,59,0.00,,---,0.00,VWS V14.00,2013-12-28 17:10:00,
2013-12-28 12:15:00,44.8,31.3,29.97,West,270,1.6,2.5,59,0.04,,---,0.04,VWS V14.00,2013-12-28 17:15:00,
2013-12-28 12:21:00,44.8,30.1,29.97,West,270,2.0,2.0,56,0.04,,---,0.04,VWS V14.00,2013-12-28 17:21:00,
2013-12-28 12:26:00,44.8,29.6,29.97,SSW,202,2.7,2.7,55,0.04,,---,0.04,VWS V14.00,2013-12-28 17:26:00,
2013-12-28 12:31:00,44.8,30.1,29.97,WSW,248,2.7,3.8,56,0.04,,---,0.04,VWS V14.00,2013-12-28 17:31:00,
2013-12-28 12:36:00,45.1,30.4,29.97,South,180,2.2,3.4,56,0.04,,---,0.04,VWS V14.00,2013-12-28 17:36:00,
2013-12-28 12:41:00,45.1,30.0,29.94,WSW,248,2.0,4.3,55,0.04,,---,0.04,VWS V14.00,2013-12-28 17:41:00,
2013-12-28 12:46:00,45.3,29.7,29.94,SSW,202,1.6,2.2,54,0.04,,---,0.04,VWS V14.00,2013-12-28 17:46:00,
2013-12-28 12:51:00,45.5,29.8,29.94,SSW,202,0.9,2.2,54,0.04,,---,0.04,VWS V14.00,2013-12-28 17:51:00,
2013-12-28 12:56:00,45.7,30.0,29.94,SW,225,1.1,2.0,54,0.04,,---,0.04,VWS V14.00,2013-12-28 17:56:00,
2013-12-28 13:01:00,46.0,30.8,29.94,WSW,248,2.9,2.9,55,0.04,,---,0.04,VWS V14.00,2013-12-28 18:01:00,
2013-12-28 13:06:00,46.4,30.7,29.94,WSW,248,3.1,3.1,54,0.04,,---,0.04,VWS V14.00,2013-12-28 18:06:00,
2013-12-28 13:11:00,46.6,30.8,29.94,SW,225,1.1,2.2,54,0.04,,---,0.04,VWS V14.00,2013-12-28 18:11:00,
2013-12-28 13:16:00,46.4,29.8,29.94,WNW,292,0.9,0.9,52,0.00,,---,0.04,VWS V14.00,2013-12-28 18:16:00,
2013-12-28 13:21:00,46.4,29.8,29.94,NW,315,1.6,2.9,52,0.00,,---,0.04,VWS V14.00,2013-12-28 18:21:00,
2013-12-28 13:26:00,46.6,29.9,29.94,West,270,2.9,2.9,52,0.00,,---,0.04,VWS V14.00,2013-12-28 18:26:00,
2013-12-28 13:31:00,46.4,29.8,29.94,West,270,1.6,2.9,52,0.00,,---,0.04,VWS V14.00,2013-12-28 18:31:00,
2013-12-28 13:36:00,46.6,29.4,29.94,SSE,158,2.5,2.5,51,0.00,,---,0.04,VWS V14.00,2013-12-28 18:36:00,
2013-12-28 13:41:00,46.8,30.1,29.94,SW,225,2.0,2.0,52,0.00,,---,0.04,VWS V14.00,2013-12-28 18:41:00,
2013-12-28 13:46:00,46.8,29.6,29.94,SSW,202,2.2,2.2,51,0.00,,---,0.04,VWS V14.00,2013-12-28 18:46:00,
2013-12-28 13:52:00,46.8,29.6,29.94,West,270,1.1,1.1,51,0.00,,---,0.04,VWS V14.00,2013-12-28 18:52:00,
2013-12-28 13:57:00,47.1,29.9,29.91,WNW,292,2.0,2.0,51,0.00,,---,0.04,VWS V14.00,2013-12-28 18:57:00,
2013-12-28 14:02:00,47.3,30.1,29.91,SSW,202,1.3,2.5,51,0.00,,---,0.04,VWS V14.00,2013-12-28 19:02:00,
2013-12-28 14:07:00,47.7,30.4,29.91,SW,225,2.0,2.7,51,0.00,,---,0.04,VWS V14.00,2013-12-28 19:07:00,
2013-12-28 14:12:00,47.3,29.6,29.91,SE,135,5.4,7.4,50,0.00,,---,0.04,VWS V14.00,2013-12-28 19:12:00,
2013-12-28 14:17:00,47.1,29.5,29.91,West,270,1.1,3.8,50,0.00,,---,0.04,VWS V14.00,2013-12-28 19:17:00,
2013-12-28 14:22:00,47.1,29.9,29.91,SSW,202,2.2,2.2,51,0.00,,---,0.04,VWS V14.00,2013-12-28 19:22:00,
2013-12-28 14:27:00,47.3,30.1,29.88,SSE,158,0.9,2.2,51,0.00,,---,0.04,VWS V14.00,2013-12-28 19:27:00,
2013-12-28 14:32:00,47.5,29.8,29.88,South,180,2.0,3.1,50,0.00,,---,0.04,VWS V14.00,2013-12-28 19:32:00,
2013-12-28 14:37:00,47.5,29.8,29.88,WSW,248,2.0,2.0,50,0.00,,---,0.04,VWS V14.00,2013-12-28 19:37:00,
2013-12-28 14:42:00,47.5,29.8,29.88,SSE,158,3.4,4.0,50,0.00,,---,0.04,VWS V14.00,2013-12-28 19:42:00,
2013-12-28 14:47:00,47.5,29.8,29.88,SSW,202,1.6,2.7,50,0.00,,---,0.04,VWS V14.00,2013-12-28 19:47:00,
2013-12-28 14:52:00,47.5,29.3,29.88,SSW,202,2.0,3.1,49,0.00,,---,0.04,VWS V14.00,2013-12-28 19:52:00,
2013-12-28 14:57:00,47.5,29.8,29.91,SSW,202,1.6,3.8,50,0.00,,---,0.04,VWS V14.00,2013-12-28 19:57:00,
2013-12-28 15:02:00,47.5,29.8,29.91,SSE,158,2.2,2.7,50,0.00,,---,0.04,VWS V14.00,2013-12-28 20:02:00,
2013-12-28 15:07:00,47.5,29.8,29.91,SSE,158,2.5,2.5,50,0.00,,---,0.04,VWS V14.00,2013-12-28 20:07:00,
2013-12-28 15:12:00,47.5,29.8,29.88,SSW,202,1.6,3.4,50,0.00,,---,0.04,VWS V14.00,2013-12-28 20:12:00,
2013-12-28 15:17:00,47.1,29.5,29.88,South,180,1.6,2.7,50,0.00,,---,0.04,VWS V14.00,2013-12-28 20:17:00,
2013-12-28 15:22:00,46.9,29.3,29.88,South,180,4.9,4.9,50,0.00,,---,0.04,VWS V14.00,2013-12-28 20:22:00,
2013-12-28 15:27:00,46.9,29.8,29.88,SSW,202,0.9,3.8,51,0.00,,---,0.04,VWS V14.00,2013-12-28 20:27:00,
2013-12-28 15:32:00,46.9,29.8,29.88,South,180,1.3,1.3,51,0.00,,---,0.04,VWS V14.00,2013-12-28 20:32:00,
2013-12-28 15:37:00,47.1,29.9,29.88,WSW,248,2.0,2.2,51,0.00,,---,0.04,VWS V14.00,2013-12-28 20:37:00,
2013-12-28 15:42:00,46.9,29.8,29.88,SSE,158,2.9,2.9,51,0.00,,---,0.04,VWS V14.00,2013-12-28 20:42:00,
2013-12-28 15:48:00,46.9,29.8,29.88,ESE,112,1.6,1.6,51,0.00,,---,0.04,VWS V14.00,2013-12-28 20:48:00,
2013-12-28 15:53:00,47.1,29.9,29.88,South,180,1.1,2.0,51,0.00,,---,0.04,VWS V14.00,2013-12-28 20:53:00,
2013-12-28 15:58:00,47.1,29.9,29.88,WSW,248,0.9,1.6,51,0.00,,---,0.04,VWS V14.00,2013-12-28 20:58:00,
2013-12-28 16:03:00,46.9,30.2,29.88,South,180,1.6,1.6,52,0.00,,---,0.04,VWS V14.00,2013-12-28 21:03:00,
2013-12-28 16:08:00,46.9,30.2,29.88,SSW,202,2.5,3.1,52,0.00,,---,0.04,VWS V14.00,2013-12-28 21:08:00,
2013-12-28 16:13:00,46.8,30.1,29.88,SSW,202,1.6,1.6,52,0.00,,---,0.04,VWS V14.00,2013-12-28 21:13:00,
2013-12-28 16:18:00,46.8,30.1,29.88,SW,225,1.1,2.5,52,0.00,,---,0.04,VWS V14.00,2013-12-28 21:18:00,
2013-12-28 16:23:00,46.4,29.8,29.88,SSW,202,2.0,3.4,52,0.00,,---,0.04,VWS V14.00,2013-12-28 21:23:00,
2013-12-28 16:28:00,46.4,30.2,29.91,South,180,1.3,2.0,53,0.00,,---,0.04,VWS V14.00,2013-12-28 21:28:00,
2013-12-28 16:33:00,46.0,29.9,29.91,WSW,248,1.1,1.1,53,0.00,,---,0.04,VWS V14.00,2013-12-28 21:33:00,
2013-12-28 16:38:00,45.9,29.7,29.91,SW,225,1.6,2.0,53,0.00,,---,0.04,VWS V14.00,2013-12-28 21:38:00,
2013-12-28 16:43:00,45.5,29.8,29.88,WSW,248,1.3,1.3,54,0.00,,---,0.04,VWS V14.00,2013-12-28 21:43:00,
2013-12-28 16:48:00,45.3,30.1,29.88,SSW,202,1.1,1.1,55,0.00,,---,0.04,VWS V14.00,2013-12-28 21:48:00,
2013-12-28 16:53:00,44.8,29.6,29.88,South,180,0.0,0.0,55,0.00,,---,0.04,VWS V14.00,2013-12-28 21:53:00,
2013-12-28 16:58:00,44.8,30.1,29.88,WNW,292,1.6,2.5,56,0.00,,---,0.04,VWS V14.00,2013-12-28 21:58:00,
2013-12-28 17:04:00,44.4,29.7,29.88,SSW,202,1.6,1.6,56,0.00,,---,0.04,VWS V14.00,2013-12-28 22:04:00,
2013-12-28 17:09:00,44.2,29.5,29.88,SSW,202,0.0,1.3,56,0.00,,---,0.04,VWS V14.00,2013-12-28 22:09:00,
2013-12-28 17:14:00,43.9,29.6,29.88,SW,225,1.6,1.6,57,0.00,,---,0.04,VWS V14.00,2013-12-28 22:14:00,
2013-12-28 17:19:00,43.5,29.3,29.88,SW,225,0.9,1.1,57,0.00,,---,0.04,VWS V14.00,2013-12-28 22:19:00,
2013-12-28 17:24:00,43.3,29.1,29.88,West,270,0.9,1.3,57,0.00,,---,0.04,VWS V14.00,2013-12-28 22:24:00,
2013-12-28 17:29:00,43.3,29.6,29.85,SSW,202,0.9,2.0,58,0.00,,---,0.04,VWS V14.00,2013-12-28 22:29:00,
2013-12-28 17:34:00,43.0,29.2,29.85,SW,225,1.1,2.0,58,0.00,,---,0.04,VWS V14.00,2013-12-28 22:34:00,
2013-12-28 17:39:00,43.0,29.2,29.85,SSE,158,3.8,4.7,58,0.00,,---,0.04,VWS V14.00,2013-12-28 22:39:00,
2013-12-28 17:44:00,42.8,29.1,29.85,West,270,1.6,3.1,58,0.00,,---,0.04,VWS V14.00,2013-12-28 22:44:00,
2013-12-28 17:49:00,42.6,28.9,29.85,SSE,158,1.3,3.1,58,0.00,,---,0.04,VWS V14.00,2013-12-28 22:49:00,
2013-12-28 17:54:00,42.6,28.9,29.85,WSW,248,1.6,2.9,58,0.00,,---,0.04,VWS V14.00,2013-12-28 22:54:00,
2013-12-28 17:59:00,42.6,28.9,29.88,WSW,248,2.0,4.7,58,0.00,,---,0.04,VWS V14.00,2013-12-28 22:59:00,
2013-12-28 18:04:00,42.4,28.7,29.88,SW,225,1.6,2.0,58,0.00,,---,0.04,VWS V14.00,2013-12-28 23:04:00,
2013-12-28 18:09:00,42.4,28.7,29.88,South,180,1.1,1.3,58,0.00,,---,0.04,VWS V14.00,2013-12-28 23:09:00,
2013-12-28 18:14:00,42.3,28.5,29.88,SW,225,2.5,2.5,58,0.00,,---,0.04,VWS V14.00,2013-12-28 23:14:00,
2013-12-28 18:19:00,42.1,28.8,29.88,WSW,248,1.6,1.6,59,0.00,,---,0.04,VWS V14.00,2013-12-28 23:19:00,
2013-12-28 18:24:00,42.3,29.0,29.88,SSW,202,3.8,6.0,59,0.00,,---,0.04,VWS V14.00,2013-12-28 23:24:00,
2013-12-28 18:29:00,42.3,29.4,29.88,WSW,248,2.9,2.9,60,0.00,,---,0.04,VWS V14.00,2013-12-28 23:29:00,
2013-12-28 18:34:00,42.1,29.2,29.88,West,270,4.9,4.9,60,0.00,,---,0.04,VWS V14.00,2013-12-28 23:34:00,
2013-12-28 18:40:00,42.1,29.6,29.88,South,180,0.9,1.6,61,0.00,,---,0.04,VWS V14.00,2013-12-28 23:40:00,
2013-12-28 18:45:00,42.1,29.6,29.88,SSW,202,2.7,2.9,61,0.00,,---,0.04,VWS V14.00,2013-12-28 23:45:00,
2013-12-28 18:50:00,41.9,29.9,29.88,SSE,158,3.6,3.6,62,0.00,,---,0.04,VWS V14.00,2013-12-28 23:50:00,
2013-12-28 18:55:00,41.7,29.7,29.88,SE,135,3.4,3.4,62,0.00,,---,0.04,VWS V14.00,2013-12-28 23:55:00,
2013-12-28 19:00:00,41.7,30.1,29.88,WSW,248,3.1,3.1,63,0.00,,---,0.04,VWS V14.00,2013-12-29 00:00:00,
2013-12-28 19:05:00,41.9,30.2,29.88,SW,225,2.0,2.7,63,0.00,,---,0.04,VWS V14.00,2013-12-29 00:05:00,
2013-12-28 19:10:00,41.7,30.5,29.88,SSW,202,3.8,3.8,64,0.00,,---,0.04,VWS V14.00,2013-12-29 00:10:00,
2013-12-28 19:15:00,41.7,30.5,29.88,SW,225,2.7,3.4,64,0.00,,---,0.04,VWS V14.00,2013-12-29 00:15:00,
2013-12-28 19:20:00,41.9,30.6,29.88,SW,225,3.1,3.4,64,0.00,,---,0.04,VWS V14.00,2013-12-29 00:20:00,
2013-12-28 19:25:00,41.7,30.5,29.88,SW,225,2.0,2.2,64,0.00,,---,0.04,VWS V14.00,2013-12-29 00:25:00,
2013-12-28 19:30:00,41.7,30.5,29.88,SSW,202,3.1,3.8,64,0.00,,---,0.04,VWS V14.00,2013-12-29 00:30:00,
2013-12-28 19:35:00,41.7,30.5,29.88,South,180,2.2,2.2,64,0.00,,---,0.04,VWS V14.00,2013-12-29 00:35:00,
2013-12-28 19:40:00,41.7,30.5,29.88,SSW,202,1.3,3.6,64,0.00,,---,0.04,VWS V14.00,2013-12-29 00:40:00,
2013-12-28 19:45:00,41.7,30.5,29.88,SSW,202,1.6,2.7,64,0.00,,---,0.04,VWS V14.00,2013-12-29 00:45:00,
2013-12-28 19:50:00,41.9,30.6,29.88,SSW,202,1.6,2.7,64,0.00,,---,0.04,VWS V14.00,2013-12-29 00:50:00,
2013-12-28 19:55:00,41.7,30.1,29.88,SW,225,2.2,2.2,63,0.00,,---,0.04,VWS V14.00,2013-12-29 00:55:00,
2013-12-28 20:00:00,41.7,30.1,29.88,West,270,1.6,2.0,63,0.00,,---,0.04,VWS V14.00,2013-12-29 01:00:00,
2013-12-28 20:05:00,41.5,29.9,29.88,South,180,1.6,1.6,63,0.00,,---,0.04,VWS V14.00,2013-12-29 01:05:00,
2013-12-28 20:10:00,41.7,30.1,29.88,South,180,1.6,2.2,63,0.00,,---,0.04,VWS V14.00,2013-12-29 01:10:00,
2013-12-28 20:15:00,41.7,30.1,29.88,SSW,202,1.3,1.3,63,0.00,,---,0.04,VWS V14.00,2013-12-29 01:15:00,
2013-12-28 20:21:00,41.7,30.1,29.88,SSW,202,3.4,3.4,63,0.00,,---,0.04,VWS V14.00,2013-12-29 01:21:00,
2013-12-28 20:26:00,41.5,29.9,29.85,WSW,248,2.0,2.0,63,0.00,,---,0.04,VWS V14.00,2013-12-29 01:26:00,
2013-12-28 20:31:00,41.4,29.7,29.85,South,180,2.0,2.0,63,0.00,,---,0.04,VWS V14.00,2013-12-29 01:31:00,
2013-12-28 20:36:00,41.4,29.7,29.85,SSW,202,2.5,2.5,63,0.00,,---,0.04,VWS V14.00,2013-12-29 01:36:00,
2013-12-28 20:41:00,41.4,29.7,29.85,SW,225,2.5,2.5,63,0.00,,---,0.04,VWS V14.00,2013-12-29 01:41:00,
2013-12-28 20:46:00,41.5,29.9,29.85,West,270,2.7,2.7,63,0.00,,---,0.04,VWS V14.00,2013-12-29 01:46:00,
2013-12-28 20:51:00,41.5,29.9,29.85,NW,315,2.5,2.9,63,0.00,,---,0.04,VWS V14.00,2013-12-29 01:51:00,
2013-12-28 20:56:00,41.4,29.7,29.85,SSE,158,1.3,2.5,63,0.00,,---,0.04,VWS V14.00,2013-12-29 01:56:00,
2013-12-28 21:01:00,41.2,29.6,29.85,SSW,202,0.0,0.9,63,0.00,,---,0.04,VWS V14.00,2013-12-29 02:01:00,
2013-12-28 21:06:00,41.0,29.4,29.85,WNW,292,1.1,3.4,63,0.00,,---,0.04,VWS V14.00,2013-12-29 02:06:00,
2013-12-28 21:11:00,41.0,29.4,29.85,SE,135,2.0,4.0,63,0.00,,---,0.04,VWS V14.00,2013-12-29 02:11:00,
2013-12-28 21:16:00,41.0,29.4,29.85,SW,225,0.9,2.7,63,0.00,,---,0.04,VWS V14.00,2013-12-29 02:16:00,
2013-12-28 21:21:00,41.2,29.2,29.85,SSW,202,0.0,5.4,62,0.00,,---,0.04,VWS V14.00,2013-12-29 02:21:00,
2013-12-28 21:26:00,41.2,29.2,29.85,West,270,3.1,3.4,62,0.00,,---,0.04,VWS V14.00,2013-12-29 02:26:00,
2013-12-28 21:31:00,41.0,28.6,29.85,SSW,202,2.5,3.8,61,0.00,,---,0.04,VWS V14.00,2013-12-29 02:31:00,
2013-12-28 21:36:00,41.2,28.8,29.85,NNW,338,0.9,3.6,61,0.00,,---,0.04,VWS V14.00,2013-12-29 02:36:00,
2013-12-28 21:41:00,41.0,28.6,29.85,West,270,2.2,4.3,61,0.00,,---,0.04,VWS V14.00,2013-12-29 02:41:00,
2013-12-28 21:46:00,41.0,28.2,29.85,South,180,2.0,2.7,60,0.00,,---,0.04,VWS V14.00,2013-12-29 02:46:00,
2013-12-28 21:51:00,40.8,28.4,29.85,SW,225,2.0,2.0,61,0.00,,---,0.04,VWS V14.00,2013-12-29 02:51:00,
2013-12-28 21:56:00,40.6,28.3,29.85,ESE,112,1.6,3.8,61,0.00,,---,0.04,VWS V14.00,2013-12-29 02:56:00,
2013-12-28 22:01:00,40.6,28.3,29.85,SW,225,1.6,1.6,61,0.00,,---,0.04,VWS V14.00,2013-12-29 03:01:00,
2013-12-28 22:07:00,40.5,28.1,29.85,West,270,2.0,2.0,61,0.00,,---,0.04,VWS V14.00,2013-12-29 03:07:00,
2013-12-28 22:12:00,40.3,27.9,29.85,WSW,248,0.9,2.5,61,0.00,,---,0.04,VWS V14.00,2013-12-29 03:12:00,
2013-12-28 22:17:00,40.3,27.9,29.85,SSW,202,1.6,1.6,61,0.00,,---,0.04,VWS V14.00,2013-12-29 03:17:00,
2013-12-28 22:22:00,39.9,28.0,29.85,SSW,202,2.5,2.9,62,0.00,,---,0.04,VWS V14.00,2013-12-29 03:22:00,
2013-12-28 22:27:00,40.1,28.1,29.82,WNW,292,1.6,2.0,62,0.00,,---,0.04,VWS V14.00,2013-12-29 03:27:00,
2013-12-28 22:32:00,40.1,28.1,29.82,West,270,0.9,2.2,62,0.00,,---,0.04,VWS V14.00,2013-12-29 03:32:00,
2013-12-28 22:37:00,40.1,27.8,29.82,WSW,248,2.5,3.6,61,0.00,,---,0.04,VWS V14.00,2013-12-29 03:37:00,
2013-12-28 22:42:00,40.1,27.8,29.82,South,180,1.6,2.7,61,0.00,,---,0.04,VWS V14.00,2013-12-29 03:42:00,
2013-12-28 22:47:00,40.1,27.8,29.82,South,180,3.1,3.4,61,0.00,,---,0.04,VWS V14.00,2013-12-29 03:47:00,
2013-12-28 22:52:00,40.3,27.9,29.82,SSW,202,2.5,3.6,61,0.00,,---,0.04,VWS V14.00,2013-12-29 03:52:00,
2013-12-28 22:57:00,40.3,27.5,29.82,SSW,202,2.0,2.9,60,0.00,,---,0.04,VWS V14.00,2013-12-29 03:57:00,
2013-12-28 23:02:00,40.3,27.5,29.82,SSW,202,2.9,4.9,60,0.00,,---,0.04,VWS V14.00,2013-12-29 04:02:00,
2013-12-28 23:07:00,40.3,27.5,29.82,SSW,202,2.7,3.4,60,0.00,,---,0.04,VWS V14.00,2013-12-29 04:07:00,
2013-12-28 23:12:00,40.3,27.5,29.82,South,180,3.6,7.2,60,0.00,,---,0.04,VWS V14.00,2013-12-29 04:12:00,
2013-12-28 23:17:00,40.3,27.5,29.82,SW,225,2.7,4.0,60,0.00,,---,0.04,VWS V14.00,2013-12-29 04:17:00,
2013-12-28 23:22:00,40.5,27.3,29.82,SSW,202,2.9,3.1,59,0.00,,---,0.04,VWS V14.00,2013-12-29 04:22:00,
2013-12-28 23:27:00,40.3,27.5,29.82,SSW,202,2.7,3.8,60,0.00,,---,0.04,VWS V14.00,2013-12-29 04:27:00,
2013-12-28 23:32:00,40.1,27.4,29.82,SSW,202,4.0,4.0,60,0.00,,---,0.04,VWS V14.00,2013-12-29 04:32:00,
2013-12-28 23:37:00,39.9,27.2,29.82,SSW,202,0.0,1.1,60,0.00,,---,0.04,VWS V14.00,2013-12-29 04:37:00,
2013-12-28 23:42:00,39.9,27.2,29.79,SSW,202,1.6,3.1,60,0.00,,---,0.04,VWS V14.00,2013-12-29 04:42:00,
2013-12-28 23:47:00,39.9,27.2,29.79,SW,225,2.7,3.8,60,0.00,,---,0.04,VWS V14.00,2013-12-29 04:47:00,
2013-12-28 23:52:00,39.7,27.0,29.79,WSW,248,1.3,1.6,60,0.00,,---,0.00,VWS V14.00,2013-12-29 04:52:00,
2013-12-28 23:57:00,39.7,27.0,29.82,WSW,248,1.3,4.7,60,0.00,,---,0.00,VWS V14.00,2013-12-29 04:57:00,